Location: Drocourt
(49.0571°N, 1.7669°E)
Time: 10:12:09
(UTC+00:00)

ATLAS 5 CENTAUR R/B - Pass Details

Date: 09 February 2023
Orbit: 460 x 1178 km, 63.3° (Epoch: 19 March)

Event Time Altitude Azimuth Distance (km) Brightness Sun altitude
Rises 18:05:29 0° 313° (NW) 2,811 5.5 -10.7°
Reaches altitude 10° 18:08:21 10° 336° (NNW) 2,031 4.4 -11.2°
Maximum altitude 18:11:18 17° 16° (NNE) 1,762 3.6 -11.6°
Enters shadow 18:14:00 12° 50° (NE) 2,165 3.8 -12.1°
